This demonstration page uses our WeatherBlox Daily Observations layout. Learn more.

Left ArrowRight Arrow

34.02893, -84.19858

Hourly Observations for March 20, 2016

Temp ( °F °C ) Dew Point ( °F °C ) Humidity (%) Winds ( mph kmh ) Pressure ( in mb ) Visibility ( mi km ) Precip ( " mm )
12:53 am 00:53 Clear 52 11 37 3 58 58 NW 13 20 29.94 1014 10 16 0.00 0.00
1:53 am 01:53 Clear 50 10 38 3.3 63 63 NW 10 17 29.93 1014 10 16 0.00 0.00
2:53 am 02:53 Clear 48 8.9 38 3.3 68 68 NW 10 17 29.93 1014 10 16 0.00 0.00
3:53 am 03:53 Clear 47 8.3 37 2.8 69 69 NW 10 17 29.93 1014 10 16 0.00 0.00
4:53 am 04:53 Clear 46 8 37 3 71 71 NW 12 19 29.94 1014 10 16 0.00 0.00
5:53 am 05:53 Clear 45 7.2 36 2.2 71 71 WNW 12 19 29.93 1014 10 16 0.00 0.00
6:53 am 06:53 Clear 43 6.1 35 1.7 74 74 NW 5 7 29.96 1015 10 16 0.00 0.00
7:53 am 07:53 Sunny 42 5.6 35 1.7 76 76 WNW 7 11 29.97 1015 10 16 0.00 0.00
8:53 am 08:53 Sunny 45 7.2 36 2.2 71 71 NW 7 11 29.98 1015 10 16 0.00 0.00
10:53 am 10:53 Sunny 50 10 35 1.7 57 57 NNW 15 24 29.99 1016 10 16 0.00 0.00
12:53 pm 12:53 Mostly Cloudy 54 12.2 35 1.7 49 49 NW 13 20 29.98 1015 10 16 0.00 0.00
1:35 pm 13:35 Partly Cloudy 53 11.7 33 0.6 47 47 NW 16 26 29.97 1015 10 16 0.00 0.00
1:36 pm 13:36 Mostly Cloudy 54 12 34 1 47 47 WNW 18 30 29.97 1015 10 16 0.00 0.00
2:53 pm 14:53 Mostly Cloudy 53 11.7 31 -0.6 43 43 undefined N/A 29.95 1014 10 16 0.00 0.00
4:49 pm 16:49 Mostly Cloudy 54 12 27 -3 35 35 NW 17 28 29.94 1014 10 16 0.00 0.00
4:53 pm 16:53 Cloudy 53 11.7 26 -3.3 35 35 WNW 15 24 29.95 1014 10 16 0.00 0.00
5:53 pm 17:53 Partly Cloudy 54 12.2 24 -4.4 31 31 NW 16 26 29.95 1014 10 16 0.00 0.00
6:53 pm 18:53 Mostly Cloudy 51 10.6 21 -6.1 31 31 WNW 14 22 29.99 1016 10 16 0.00 0.00
7:53 pm 19:53 Partly Cloudy 48 8.9 19 -7.2 32 32 WNW 16 26 30.03 1017 10 16 0.00 0.00
8:53 pm 20:53 Cloudy 46 7.8 20 -6.7 35 35 WNW 18 30 30.06 1018 10 16 0.00 0.00
9:53 pm 21:53 Partly Cloudy 44 6.7 20 -6.7 38 38 NW 17 28 30.09 1019 10 16 0.00 0.00
10:53 pm 22:53 Clear 42 5.6 21 -6.1 43 43 NW 14 22 30.11 1020 10 16 0.00 0.00
11:53 pm 23:53 Clear 41 5 25 -3.9 53 53 NW 12 19 30.11 1020 10 16 0.00 0.00

Powered by AerisWeather